Location: Gleizolles
(44.4833°N, 6.7667°E)
Time: 13:18:37
(UTC+00:00)

A-11 Canister half - Pass Details

Date: 21 June 2024
Orbit: 1515 x 1684 km, 47.2° (Epoch: 24 July)

Event Time Altitude Azimuth Distance (km) Brightness Sun altitude
Rises 21:30:13 0° 284° (WNW) 4,902 12.3 -16.3°
Reaches altitude 10° 21:33:24 10° 285° (WNW) 3,896 11.7 -16.6°
Maximum altitude 21:43:25 84° 15° (NNE) 1,619 9.1 -17.5°
Drops below altitude 10° 21:53:01 10° 105° (ESE) 3,755 10.7 -18.2°
Enters shadow 21:54:49 - 105° (ESE) 4,325 11.0 -18.3°
